Location: Northcutt
(34.7304°N, 84.4305°W)
Time: 17:41:17
(UTC+00:00)

SR - Pass Details

Date: 08 October 2022
Orbit: 577 x 874 km, 66.7° (Epoch: 05 December)

Event Time Altitude Azimuth Distance (km) Brightness Sun altitude
Rises 00:42:18 0° 202° (SSW) 3,388 ? -19.1°
Reaches altitude 10° 00:44:43 10° 201° (SSW) 2,481 ? -19.6°
Maximum altitude 00:50:32 81° 114° (ESE) 888 ? -20.8°
Drops below altitude 10° 00:56:26 10° 29° (NNE) 2,521 ? -22.0°
Enters shadow 00:57:32 - 28° (NNE) 2,931 ? -22.2°
Sets 00:58:55 0° 28° (NNE) 3,447 - -22.5°
